星链-4019 (STARLINK-4019 )

导读 | 星芒AI

STARLINK-4019 是由 SpaceX 发射的星链计划中的一颗低轨通信卫星,属于该计划的第四批组网卫星之一。它运行在约 550 公里的近地轨道,旨在为全球用户提供高速互联网服务。该卫星采用先进的相控阵天线和激光通信技术,以提高数据传输效率和网络稳定性。作为星链系统的重要组成部分,STARLINK-4019 有助于扩大覆盖范围,特别是在偏远和网络基础设施薄弱的地区。

基本信息
目录编号:
52598
目录名称:
STARLINK-4019
国际标识:
2022-052A
轨道中心:
EARTH
卫星名称:
星链-4019
卫星全名:
星链-4019 (STARLINK-4019 )
卫星状态:
在轨 (已飞行1317 天)
发射日期:
2022-05-14 UTC
国别 :
美国 (US)
星等 :
--
轨道信息
数据来源 国际轨道数据
星历时间: 2025-12-20T09:45:44+0800
1天前
查看轨道信息
半长轴: 6917.877km
偏心率: 0.0001872
轨道倾角: 53.220°
近地点辐角 80.875°
升交点赤经 281.534°
平近点角 279.246°
近地点: 538.444km
远地点: 541.036km
周期: 95.437分钟
每日圈数: 15.088412
详细信息
固有亮度:
5
最大亮度:
2.5
卫星平台:
Starlink v1.5
覆盖范围:
全球
运营商:
太空探索技术公司
运营商所在国:
美国
制造商(研发单位):
太空探索技术公司
制造商所在国:
美国
使用方式:
暂无
卫星简介
星链(Starlink)计划是由太空探索技术公司(SpaceX)提出的一个巨型低轨卫星互联网星座项目,计划在2019年至2024年间在太空搭建由约1.2万颗卫星组成的“星链”网络,其中1584颗将部署在地球上空550千米处的近地轨道,并从2020年开始工作。该卫星仍在工作。
2D轨道图
3D轨道图
轨道高度分析图
轨道倾角分析图
轨道综合分析图
查看轨道综合分析图